User: anonymous   Login
Location: Ballard
(38.3614°N, 94.1431°W)
Time: 15:30:09
(UTC-06:00)
Language:

Hubble Space Telescope - Orbit

View from above orbital plane
View from above orbital plane
View from above satellite
View from above satellite

Ground track
Ground track

The orbit data is extracted from the following two-line orbital elements,

1 20580U 90037B   19320.26113581  .00000474  00000-0  17888-4 0  9997
2 20580  28.4700 296.2564 0002464 308.7971 174.4368 15.09299270423661
Epoch (UTC): 16 November 2019 06:16:02
Eccentricity: 0.0002464
inclination: 28.4700°
perigee height: 536 km
apogee height: 540 km
right ascension of ascending node: 296.2564°
argument of perigee: 308.7971°
revolutions per day: 15.09299270
mean anomaly at epoch: 174.4368°
orbit number at epoch: 42366

The dashed part of the orbit path shows where the satellite is in the earth's shadow,  

DLR